Regional Weather Roundup
Issued by NWS

Home | Current Version | Previous Version | Graphics & Text | Print | Product List | Glossary On
Versions: 1 2 3 4 5 6 7 8 9 10 11 12 13 14 15 16 17 18 19 20 21 22 23 24 25 26 27 28 29 30 31 32 33 34 35 36 37 38 39 40 41 42 43 44 45 46 47 48 49 50
000
ASUS45 KABQ 060301
RWRNM
NEW MEXICO REGIONAL WEATHER ROUNDUP
NATIONAL WEATHER SERVICE ALBUQUERQUE NM
800 PM MST MON DEC 05 2016

NOTE: "FAIR" MEANS FEW OR NO CLOUDS BELOW 12,000 FEET AGL WITH NO
       SIGNIFICANT WEATHER OR OBSTRUCTIONS TO VISION.

      THIS PRODUCT IS RELEASED AS TWO VERSIONS.  ONE VERSION NEAR
      THE TOP OF THE HOUR CONTAINING PRELIMINARY DATA FROM ALBUQUERQUE
      AND OTHER STATIONS.  A FINAL VERSION WITH ADDITIONAL DATA IS
      ISSUED ABOUT 10 MINUTES AFTER THE HOUR.

NMZ501-503-504-510>518-060400-
NORTHWEST PLATEAU/NORTHCENTRAL MOUNTAINS

CITY           SKY/WX    TMP DP  RH WIND       PRES   REMARKS
FARMINGTON     FAIR      33  20  58 CALM      29.86S
LOS ALAMOS     MOCLDY    38  10  30 E5        29.89R WCI  35
SANTA FE       FAIR      35  10  35 N12       29.86R WCI  27
TAOS           FAIR      32  12  43 SE8       29.88R WCI  25
ANGEL FIRE     FAIR      21  13  73 S5        29.90R WCI  14

$$
NMZ402-403-502-505>509-060400-
WESTCENTRAL MOUNTAINS/SOUTHWEST MOUNTAINS

CITY           SKY/WX    TMP DP  RH WIND       PRES   REMARKS
GALLUP         FAIR      36  18  48 CALM      29.93R
GRANTS         FAIR      33  18  52 CALM      29.93R
SILVER CITY    FAIR      35  22  60 NW7       29.96R WCI  29

$$
NMZ407-409-411-412-060400-
SOUTHERN DESERTS

CITY           SKY/WX    TMP DP  RH WIND       PRES   REMARKS
DEMING         FAIR      44  26  49 S3        29.93R
LAS CRUCES     FAIR      52  17  25 W22       29.90R
HOLLOMAN AFB   FAIR      45  22  40 SW8       29.89R
T OR C         FAIR      50  17  27 W13       29.88R

$$
NMZ519>523-060400-
CENTRAL VALLEYS/CENTRAL HIGHLANDS

CITY           SKY/WX    TMP DP  RH WIND       PRES   REMARKS
ALBUQUERQUE    FAIR      46  15  28 NW5       29.87R
DOUBLE EAGLE   CLEAR     37  16  41 NW10      29.88R WCI  30
MORIARTY ARPT  FAIR      41   9  27 NW15      29.87S
CLINES CORNERS FAIR      38   8  29 NW26G36   29.83S WCI  26
BELEN          FAIR      39  17  42 W8        29.88R WCI  33
SOCORRO        FAIR      45  15  30 CALM      29.87S

$$
NMZ524>526-539-540-060400-
SOUTHCENTRAL MOUNTAINS

CITY           SKY/WX    TMP DP  RH WIND       PRES   REMARKS
RUIDOSO        FAIR      41  16  36 NW7       29.89R

$$
NMZ527>531-060400-
NORTHEAST HIGHLANDS/NORTHEAST PLAINS

CITY           SKY/WX    TMP DP  RH WIND       PRES   REMARKS
LAS VEGAS      FAIR      38  -2  18 E7        29.80R WCI  33
RATON          FAIR      36   7  29 W9        29.77R WCI  29
CLAYTON        FAIR      44  24  45 N26G38    29.75R

$$
NMZ532>537-060400-
EASTCENTRAL PLAINS

CITY           SKY/WX    TMP DP  RH WIND       PRES   REMARKS
TUCUMCARI      FAIR      51  19  28 NW17      29.68R
CANNON AFB     FAIR      51  20  29 W14       29.72R
CLOVIS AIRPORT FAIR      50  21  32 W16       29.69S

$$
NMZ028-029-538-060400-
SOUTHEAST PLAINS

CITY           SKY/WX    TMP DP  RH WIND       PRES   REMARKS
ROSWELL        FAIR      49  32  52 W10       29.77R
ARTESIA        FAIR      50  30  46 W12       29.77R
CARLSBAD       FAIR      57  28  33 W26G33    29.76R
HOBBS          FAIR      50  32  50 W17       29.76S


$$




USA.gov is the U.S. government's official web portal to all federal, state and local government web resources and services.